Regional Weather Roundup
Issued by NWS

Home | Current Version | Previous Version | Graphics & Text | Print | Product List | Glossary On
Versions: 1 2 3 4 5 6 7 8 9 10 11 12 13 14 15 16 17 18 19 20 21 22 23 24 25 26 27 28 29 30 31 32 33 34 35 36 37 38 39 40 41 42 43 44 45 46 47 48 49 50
000
ASUS43 KFSD 212210
RWRSD

WEATHER ROUNDUP FOR SOUTH DAKOTA
NATIONAL WEATHER SERVICE SIOUX FALLS SD
500 PM CDT FRI JUL 21 2017

NOTE: "FAIR" INDICATES FEW OR NO CLOUDS BELOW 12,000 FEET WITH NO
SIGNIFICANT WEATHER AND/OR OBSTRUCTIONS TO VISIBILITY.


SDZ001>005-009-010-012>017-212300-
NORTHWEST AND NORTH CENTRAL SOUTH DAKOTA

CITY           SKY/WX    TMP DP  RH WIND       PRES   REMARKS
BUFFALO          N/A     92  46  20 NW21G30   29.84S
FAITH            N/A     95  62  33 W15G25    29.83S HX  96
MOBRIDGE       SUNNY     93  73  52 SW6       29.75S HX 102
$$

SDZ012>016-024>037-041>051-057-063-072>074-212300-
SOUTHWEST AND SOUTH CENTRAL SOUTH DAKOTA

CITY           SKY/WX    TMP DP  RH WIND       PRES   REMARKS
RAPID CTY ARPT SUNNY     95  49  20 NW21G28   29.91S
PIERRE         CLOUDY    96  65  35 NE5       29.74F HX  98
CUSTER         SUNNY     89  33  13 NW9       30.09F
PHILIP         PTSUNNY   98  59  27 W13       29.79F HX  98
PINE RIDGE     SUNNY     95  55  26 N8        29.91S
SPEARFISH      FAIR      90  41  18 NW14      29.99S
WINNER         FAIR      99  66  33 NE3       29.78F HX 103
$$

SDZ004>011-016>023-039-040-212300-
NORTHEAST SOUTH DAKOTA

CITY           SKY/WX    TMP DP  RH WIND       PRES   REMARKS
ABERDEEN       SUNNY     88  73  61 VRB3      29.76F HX  95
WATERTOWN      MOSUNNY   88  72  58 S12       29.80S
BROOKINGS      PTSUNNY   86  71  60 S14       29.82F
SISSETON         N/A     88  76  67 SE12      29.75S HX  99
$$

SDZ017-020-022-023-036>040-048>070-212300-
SOUTHEAST SOUTH DAKOTA

CITY           SKY/WX    TMP DP  RH WIND       PRES   REMARKS
SIOUX FALLS    CLOUDY    83  74  74 E12       29.82F
HURON          PTSUNNY   88  71  57 SE13      29.76F
CHAMBERLAIN    MOSUNNY   98  70  40 E8        29.76F HX 104
MITCHELL       SUNNY     89  74  60 SE13      29.78F HX  98
YANKTON        SUNNY     89  76  65 E14       29.77F HX 100
$$

ABBREVIATIONS USED IN REMARKS
   TC - TEMPERATURE IN CELSIUS
  WCI - WIND CHILL INDEX
   HX - HEAT INDEX
  VSB - VISIBILITY





USA.gov is the U.S. government's official web portal to all federal, state and local government web resources and services.